Wind_Speed
21 21 20 21 23 23 23 24 24 24 24 24 24 24 23 23 24 24 24 24 23 23 23 23 23 22 21 21 21 22 22 22 20 12 10 22 31 29 25 20 11 10 15 14 21 21 14 13 14 17 13 7 4 3 8 7 3 3 2 3 4 4 4 4 5 3 4 5 9 12 14 16 13 8 5 7 6 11 10 4 6 4 6 11 16 24 29 29
21 21 21 22 23 24 25 26 27 26 26 26 25 25 24 24 25 25 25 24 24 23 23 23 22 21 21 20 21 21 21 21 17 13 21 25 24 25 26 25 21 15 17 19 24 22 13 12 13 14 9 4 4 4 6 6 6 5 3 3 5 5 4 4 5 4 4 7 9 11 16 17 15 12 8 9 9 10 10 6 7 8 10 13 19 26 28 29
21 21 22 22 24 27 28 28 28 28 28 27 26 26 26 26 26 26 25 25 24 24 23 23 22 20 20 19 19 18 16 14 9 12 18 15 13 17 19 23 26 22 18 18 22 24 18 15 15 12 6 5 4 5 6 6 6 7 4 4 7 7 6 6 6 4 2 9 12 11 13 13 14 12 8 11 12 10 10 11 10 10 13 15 17 22 26 28
23 22 21 23 27 30 29 28 29 29 28 28 28 28 28 28 27 27 26 25 25 24 24 23 21 19 18 17 16 14 11 7 5 9 8 11 13 12 15 23 26 25 20 16 19 22 21 17 14 10 6 5 4 5 7 5 4 4 6 7 7 4 5 9 7 2 1 8 14 12 10 11 12 10 9 14 12 6 8 14 16 17 18 19 18 20 24 24
23 23 23 25 28 28 27 27 28 28 28 29 29 29 30 30 29 28 27 26 25 24 24 22 19 18 17 15 12 9 5 3 5 5 5 11 12 8 17 24 25 24 19 17 17 18 18 15 11 7 5 5 4 5 7 9 5 3 9 12 9 3 5 11 7 1 3 5 10 12 12 12 11 8 12 19 13 9 13 14 17 20 21 23 22 21 21 20
24 25 25 27 27 27 27 27 28 28 30 31 31 31 31 31 30 29 28 26 25 24 23 21 19 16 15 12 6 3 1 2 8 7 4 11 11 5 18 24 23 21 20 19 16 14 12 11 10 8 6 5 6 8 6 8 8 6 8 9 10 6 7 12 11 5 4 6 8 11 13 12 12 9 14 19 13 13 16 15 16 19 21 24 23 21 21 20
25 26 26 27 28 28 29 30 31 32 31 31 32 33 33 32 31 30 29 27 25 24 22 20 18 14 12 6 2 1 2 6 17 16 12 13 12 6 20 22 22 22 22 19 13 9 8 9 10 8 6 5 6 10 8 6 8 9 10 9 9 7 9 12 11 11 3 8 12 10 10 14 15 11 12 13 6 9 14 15 16 17 19 22 21 20 20 20
26 27 28 28 29 30 33 34 34 33 33 33 34 34 34 33 32 31 29 28 26 23 21 19 16 12 8 3 0 2 0 13 22 18 15 15 11 8 20 22 22 25 24 21 15 10 8 9 11 7 7 9 5 7 7 5 7 10 11 10 9 8 11 13 11 12 7 7 11 12 12 17 17 12 14 12 4 12 15 15 16 17 18 19 19 20 18 18
27 28 29 29 31 33 36 37 35 35 35 35 36 36 35 34 32 32 30 28 26 21 19 18 14 7 3 1 1 2 6 12 13 11 9 8 8 10 19 22 24 26 23 22 20 13 9 8 10 8 5 8 6 5 4 4 6 9 11 10 10 11 13 13 13 13 8 6 8 13 15 15 12 10 10 8 9 14 16 17 17 18 18 17 18 19 18 17
28 29 30 31 33 36 38 37 36 36 37 38 38 37 35 34 33 32 30 29 25 20 18 15 10 2 3 2 3 3 8 5 4 7 4 6 9 13 17 20 26 27 19 17 17 13 9 8 9 7 3 3 5 7 5 5 4 5 9 11 12 14 14 13 14 15 9 7 10 15 15 11 9 9 6 5 12 16 16 17 18 18 18 17 17 16 16 17
29 30 30 32 36 38 39 38 38 38 39 41 40 38 36 34 33 32 30 28 24 19 16 11 6 6 6 3 4 6 7 4 3 6 9 2 10 17 20 21 25 27 19 11 14 18 17 13 8 4 4 3 5 6 6 7 4 6 9 9 12 13 13 13 13 14 7 6 12 14 9 7 8 8 8 10 16 18 18 18 18 19 17 16 17 15 13 14
29 29 31 34 38 39 40 40 40 41 42 42 41 39 37 34 32 31 29 27 23 17 12 7 7 9 6 1 7 17 11 6 7 4 7 4 6 15 19 22 24 28 23 12 13 23 25 18 10 7 6 3 2 4 5 5 4 7 7 7 10 8 8 11 9 10 7 6 10 11 6 5 10 9 10 15 17 18 19 19 18 18 16 15 15 14 12 13
29 30 32 35 40 40 41 42 42 43 43 43 43 40 36 33 32 30 28 26 20 13 8 7 10 11 6 2 10 21 18 13 15 17 19 14 8 11 16 20 22 26 26 18 17 25 27 20 12 10 7 3 2 1 5 7 4 5 4 4 6 5 7 8 5 7 9 7 11 11 3 6 10 8 12 16 18 19 18 18 17 15 14 14 13 12 12 14
30 30 32 37 41 42 42 43 44 45 44 45 43 38 34 33 31 26 23 20 14 8 9 9 12 11 4 7 10 12 16 19 22 24 23 17 11 10 13 18 20 23 25 23 21 21 26 22 12 8 6 6 5 5 8 8 3 4 4 3 3 3 7 8 3 4 6 6 13 12 6 7 8 8 15 16 19 21 18 18 17 15 14 14 13 13 13 14
32 32 34 39 42 43 43 44 46 45 46 47 41 35 33 30 23 17 12 8 4 7 12 12 13 9 0 10 13 10 11 14 21 28 27 21 14 9 12 18 20 22 23 24 20 14 19 19 9 5 4 4 4 6 7 5 3 2 3 4 2 3 6 9 5 5 7 4 12 13 6 5 5 9 16 16 19 21 19 19 17 16 16 15 14 13 13 13
35 36 39 41 43 44 43 46 47 46 49 45 36 33 28 19 11 8 5 3 6 12 14 11 11 6 1 6 7 5 6 9 15 21 23 23 21 17 18 18 16 18 20 22 19 11 12 13 5 5 4 3 5 4 4 5 5 1 3 5 4 4 4 7 6 5 9 6 9 13 6 2 3 10 15 16 19 19 18 18 18 17 16 16 14 13 13 12
36 39 41 42 44 45 45 48 46 48 49 39 33 29 16 8 7 10 12 12 12 14 11 5 8 5 4 7 5 4 6 9 13 12 14 21 26 25 17 10 8 12 14 16 14 8 7 8 3 4 5 4 4 4 4 7 6 3 2 4 4 4 4 5 6 6 5 8 10 12 7 4 6 13 16 16 19 18 17 18 19 17 15 14 13 13 14 13
36 39 41 43 45 45 47 48 46 50 45 33 31 22 8 7 8 15 17 15 12 10 5 2 5 2 5 6 4 4 4 5 8 8 10 16 24 27 18 9 6 6 5 5 6 6 5 4 3 3 3 5 5 6 7 7 4 3 3 4 4 3 4 6 6 5 1 9 12 11 7 4 7 14 16 16 19 18 18 19 18 17 16 14 13 13 14 14
37 40 41 44 45 46 49 47 48 50 38 30 29 13 7 7 5 8 9 8 5 2 1 1 5 2 4 6 5 6 9 10 10 10 10 13 18 22 18 11 5 6 5 1 3 6 5 2 4 6 6 8 8 8 9 6 3 5 5 4 5 4 5 8 6 4 3 6 10 11 10 7 10 15 17 17 18 17 16 16 15 15 15 14 13 13 14 16
36 39 41 45 45 47 49 46 50 45 29 31 30 9 4 7 2 1 4 3 5 7 8 7 9 7 10 10 3 5 11 9 7 5 8 15 16 13 9 6 4 4 5 5 5 4 5 5 7 8 7 7 7 7 7 6 7 7 5 5 7 5 7 9 5 4 4 5 6 10 11 10 14 17 18 17 16 15 14 15 14 15 14 14 15 15 16 17
36 38 41 44 45 48 47 46 49 35 21 29 25 6 3 6 3 5 8 10 11 11 14 16 14 15 17 15 6 5 8 5 5 6 8 13 16 12 6 6 6 6 6 8 5 1 5 8 9 7 6 6 6 6 6 6 8 8 6 6 8 6 9 10 5 4 4 3 5 7 7 9 14 18 17 17 17 17 17 18 17 18 16 15 16 18 18 16
35 36 41 43 45 49 46 48 44 23 18 29 18 3 3 6 9 11 8 9 11 11 16 19 17 18 20 24 21 7 3 5 9 12 9 11 13 10 7 8 9 7 6 7 4 3 6 10 9 7 6 6 5 6 6 6 7 7 6 5 7 7 7 8 6 5 4 4 5 6 7 9 11 14 16 19 20 18 18 20 20 20 18 16 16 17 17 15
35 38 41 41 47 49 46 49 35 14 24 32 14 2 7 14 20 18 7 7 11 9 14 17 17 17 17 20 19 11 7 8 8 11 8 13 10 9 9 11 11 7 7 9 8 7 6 7 8 8 7 7 7 6 6 5 5 5 6 5 8 9 4 4 5 4 2 3 4 6 6 5 5 6 11 17 18 16 16 18 17 17 19 20 21 19 18 18
39 41 41 43 49 48 49 46 23 15 34 30 8 4 16 23 25 22 7 5 8 6 11 15 14 13 15 12 12 16 11 8 8 11 10 13 8 7 10 12 11 8 8 12 13 11 8 5 7 9 8 9 9 8 6 6 5 6 7 7 10 11 7 6 3 7 6 5 3 3 1 1 7 8 10 13 14 12 12 14 13 15 17 18 19 19 18 19
41 41 42 46 47 49 51 33 12 25 39 20 2 13 27 28 26 21 7 2 6 5 6 9 7 8 11 10 14 16 8 6 11 11 8 12 10 7 7 8 8 10 12 12 11 11 10 6 7 10 9 9 10 9 8 7 5 7 9 10 13 13 10 7 3 6 5 6 4 4 1 5 7 14 14 12 12 12 11 14 17 16 15 15 15 16 17 17
41 41 44 46 46 53 44 15 13 34 29 8 9 25 31 29 29 20 4 0 6 4 2 2 3 6 9 9 10 10 4 5 12 13 8 10 13 7 5 5 4 10 12 8 6 5 7 7 8 10 10 11 11 10 10 8 5 8 7 8 11 11 11 11 4 2 3 5 5 2 3 5 4 11 15 13 14 17 14 15 19 16 15 16 15 15 16 16
40 41 45 45 47 49 27 9 24 29 12 8 20 31 32 31 31 16 1 2 5 3 4 1 2 7 9 8 12 10 3 3 5 11 13 12 11 6 5 7 4 7 8 5 4 3 7 11 10 11 10 10 10 10 10 9 7 9 4 4 7 8 10 13 6 3 5 5 6 3 4 3 3 8 14 15 17 17 15 16 18 16 17 18 17 16 17 18
40 42 44 44 48 41 18 14 24 17 10 18 25 31 33 32 24 7 2 2 3 2 3 1 2 6 5 7 15 9 4 3 4 7 14 15 11 6 7 10 8 9 9 8 8 4 9 13 14 14 11 9 9 9 9 10 10 9 3 5 7 8 9 10 5 5 5 4 8 7 5 4 5 5 8 14 16 16 17 18 19 19 20 20 19 18 18 19
41 42 43 46 47 37 21 17 18 15 17 21 26 32 33 27 13 2 2 2 2 1 1 2 2 4 4 6 12 7 3 1 0 3 10 13 10 4 6 9 9 9 9 12 10 4 7 12 16 15 12 9 8 8 10 12 12 7 5 6 7 6 7 6 5 5 3 4 9 10 6 5 7 4 5 9 13 16 17 18 19 21 22 20 19 19 19 17
42 42 43 46 44 36 28 22 19 17 19 22 29 32 25 14 2 4 2 4 2 3 1 2 2 1 4 7 7 8 6 4 3 3 7 8 8 3 1 4 7 5 6 9 11 7 3 5 11 11 10 10 8 8 11 14 12 5 4 6 7 6 4 2 3 3 2 6 10 13 9 7 6 6 5 8 12 17 16 15 17 19 20 20 19 19 19 17
42 42 44 44 39 32 23 18 20 22 22 24 26 21 12 4 3 3 6 3 3 3 1 4 5 5 2 3 3 5 6 5 2 5 6 5 7 5 1 3 5 3 4 7 9 9 6 4 5 5 8 10 9 9 10 11 12 7 4 5 4 5 4 4 2 3 5 9 8 11 9 8 8 7 5 8 14 20 18 17 19 20 21 21 20 19 19 18
41 43 44 41 37 29 16 15 25 27 23 20 17 9 2 1 1 4 4 4 3 1 3 3 4 6 4 3 3 4 5 4 2 5 9 9 8 9 8 6 6 6 6 8 6 5 8 8 5 4 7 11 9 8 7 7 10 9 5 5 4 3 3 5 4 2 7 8 5 8 8 7 8 8 8 11 15 19 19 19 21 23 24 22 21 21 18 16
42 43 43 40 35 26 17 20 29 26 21 16 9 3 4 2 4 5 5 4 0 3 5 3 7 8 5 3 3 5 5 4 3 3 8 11 9 11 12 9 9 8 5 6 5 3 5 6 7 8 5 8 11 8 7 6 7 9 8 6 6 5 4 6 5 4 6 6 4 6 6 4 5 6 11 13 15 19 21 21 22 23 24 24 23 22 19 17
42 43 42 39 28 17 17 25 29 22 16 10 2 2 2 5 4 3 5 6 2 5 6 6 10 8 4 2 4 4 3 5 6 3 4 8 8 9 10 9 9 7 3 3 5 6 7 6 8 12 6 7 12 11 9 7 6 9 7 6 7 6 5 5 4 4 5 6 4 2 4 5 5 6 10 14 15 17 19 21 21 20 21 22 21 19 18 17
41 42 39 33 22 13 18 28 28 15 6 2 1 3 5 6 2 1 2 3 4 6 8 9 7 4 2 3 3 2 3 3 5 6 4 7 9 8 9 10 10 8 4 3 3 4 9 8 6 9 7 10 12 10 8 7 5 7 5 6 8 7 6 4 5 6 3 4 5 3 4 5 5 6 7 12 14 16 18 20 19 19 18 16 14 14 16 16
41 42 35 28 19 14 21 31 25 8 3 2 2 5 5 3 1 0 1 3 3 6 10 9 3 2 4 3 3 7 7 5 2 2 4 5 7 9 9 7 10 12 7 6 4 2 6 8 4 4 5 10 13 10 9 9 5 3 5 8 8 7 8 6 6 4 2 4 5 3 4 5 3 6 6 9 12 14 16 17 18 19 16 14 13 13 15 16
37 35 29 23 18 20 28 33 21 4 3 2 4 6 3 2 1 0 1 3 3 6 7 4 2 2 3 3 3 7 9 6 4 4 1 3 4 7 9 7 9 14 12 8 5 3 5 6 4 8 10 11 10 8 8 10 9 5 5 8 3 3 6 5 3 6 5 6 6 2 5 5 3 5 5 6 10 11 13 14 17 17 14 13 15 15 17 19
29 27 18 13 19 27 34 33 15 5 4 0 5 4 2 2 3 3 1 3 3 4 3 1 2 1 2 3 3 6 9 5 4 7 3 3 2 1 3 5 7 11 16 14 6 3 6 6 6 9 13 10 7 7 6 7 10 7 5 7 5 4 7 4 4 6 6 6 6 3 5 5 5 5 4 7 10 11 11 12 15 16 13 13 15 16 18 19
21 16 7 7 23 34 36 28 9 5 3 1 5 4 2 2 4 6 5 4 2 2 2 2 2 2 3 3 4 5 6 3 4 5 2 2 2 5 9 5 3 6 11 16 10 4 5 5 6 6 10 8 5 6 7 8 10 6 2 5 5 4 6 6 5 4 4 5 5 3 3 5 6 6 7 10 10 11 12 12 14 16 15 14 14 15 16 17
13 6 3 10 28 36 34 20 1 5 1 3 3 3 3 3 4 6 6 4 1 1 2 2 2 3 3 4 6 5 3 4 4 2 1 4 1 5 11 9 6 11 12 9 11 8 4 4 6 4 5 7 4 5 10 10 9 7 5 6 6 3 2 4 4 3 4 5 4 3 5 7 5 5 9 11 11 12 12 12 13 15 15 15 15 16 16 17
7 2 3 17 31 34 28 10 3 2 2 2 2 4 5 6 5 6 7 6 3 1 3 3 5 5 4 5 6 4 3 4 4 1 2 3 3 3 9 11 9 11 10 6 4 6 3 4 6 6 5 6 5 7 12 13 12 9 8 8 8 5 3 4 5 2 3 5 5 5 8 9 5 5 8 9 10 11 11 13 13 14 16 17 17 17 18 18
3 2 9 23 32 28 16 3 0 3 0 1 4 5 6 6 6 6 6 5 4 3 3 3 5 5 3 3 3 4 4 2 3 2 2 1 5 5 8 14 12 10 7 4 3 5 4 2 8 9 8 7 9 10 12 14 13 10 9 8 7 5 5 6 8 4 3 3 2 2 6 9 6 7 8 9 10 10 10 11 12 12 14 15 16 18 18 18
2 6 15 22 26 20 8 2 3 4 3 6 8 7 6 5 5 6 5 5 5 3 3 2 2 2 2 2 3 4 5 2 1 2 2 3 5 7 10 16 13 10 8 4 4 9 8 3 5 6 6 5 6 7 5 7 10 9 9 9 9 8 8 8 6 4 4 4 3 1 6 7 4 6 8 7 6 8 8 9 10 10 10 11 14 16 15 16
3 6 9 15 22 15 4 3 5 5 6 9 9 8 7 4 5 7 6 6 4 2 3 3 3 4 3 2 2 2 4 2 1 5 5 3 3 7 12 16 13 9 7 5 6 6 4 3 1 1 5 6 5 6 6 5 6 5 6 10 12 14 13 7 3 3 4 6 7 5 7 6 5 4 6 5 4 6 6 7 9 10 9 11 12 12 12 13
4 3 3 9 16 10 3 4 6 5 6 9 9 9 8 6 5 7 7 6 3 3 4 3 4 6 3 2 2 2 3 1 1 5 5 4 4 5 11 14 10 7 7 10 11 5 3 2 1 3 6 8 6 6 7 5 4 3 5 10 14 17 18 10 4 5 6 5 7 7 5 5 7 6 4 5 6 7 7 7 7 9 9 10 10 10 10 11
3 3 3 5 7 4 2 3 6 6 6 8 7 6 8 8 7 6 6 4 5 7 5 3 4 5 3 4 4 2 2 2 2 4 4 4 4 3 8 11 7 7 13 16 15 6 2 2 3 4 5 6 5 7 6 6 8 9 10 12 12 15 17 13 8 7 6 4 6 8 6 4 6 6 5 7 7 8 9 8 8 8 8 9 10 11 11 11
2 3 3 3 3 3 3 3 6 7 7 7 5 5 8 9 8 5 3 2 6 7 4 3 4 5 5 5 4 3 3 3 3 4 4 3 3 4 7 7 5 11 17 15 12 6 2 2 5 5 6 6 6 12 12 8 12 14 14 14 13 13 14 15 14 9 8 7 9 8 8 7 8 6 7 8 8 9 10 9 8 8 8 8 10 11 12 12
2 2 2 2 2 3 4 5 7 8 9 8 5 5 8 9 7 6 3 4 7 5 3 3 5 8 8 6 2 2 4 5 3 1 3 4 5 6 7 3 3 12 16 11 7 5 2 3 4 6 11 12 10 13 14 12 12 13 15 17 16 14 15 18 16 11 11 11 12 9 11 11 9 8 9 9 9 10 10 8 7 7 7 8 9 10 12 13
2 2 2 2 1 3 5 8 9 9 8 8 5 4 8 8 8 8 6 6 7 5 3 3 5 8 9 6 2 1 3 4 3 2 4 5 5 6 5 3 2 9 13 10 7 5 2 4 5 8 13 14 13 13 13 11 12 11 13 17 17 16 18 19 16 13 13 14 12 9 11 12 9 10 12 11 12 10 6 4 5 6 7 8 9 10 11 13
1 1 2 2 2 4 5 6 6 6 6 7 5 4 5 7 8 9 8 6 7 7 4 4 8 9 8 6 4 3 3 3 5 6 5 5 5 4 3 2 3 7 9 7 5 4 2 3 8 9 9 11 12 11 10 10 11 13 13 13 16 18 20 20 17 13 11 13 11 9 9 9 8 8 10 10 9 5 3 4 6 7 8 9 9 10 11 12
4 3 3 3 4 4 3 3 3 4 4 3 3 5 5 6 7 7 7 6 6 6 5 7 11 10 6 5 6 7 7 6 7 8 7 6 5 4 3 2 4 6 6 4 4 3 2 3 6 7 6 7 7 8 13 16 11 11 14 15 16 17 16 16 14 11 11 12 12 11 8 7 9 8 7 8 7 5 6 7 7 7 7 8 9 10 11 10
5 4 3 2 3 3 2 3 3 3 3 2 4 7 7 7 7 6 5 4 4 6 8 9 9 7 6 8 8 7 8 8 9 9 7 7 7 6 6 6 6 6 4 3 3 2 1 2 5 5 4 6 9 10 13 14 9 9 16 18 17 14 13 12 11 11 13 13 12 12 10 9 10 7 6 7 9 9 10 9 8 8 8 8 9 10 11 11
Wind_Direction
351 350 350 350 349 349 350 352 351 348 347 345 344 343 343 343 341 341 340 339 339 337 335 332 330 329 326 326 324 320 318 315 309 297 251 261 267 261 258 247 237 208 190 173 158 151 150 167 170 169 169 177 194 187 193 214 199 181 195 212 246 241 234 216 215 200 149 140 155 160 146 140 148 154 117 108 125 134 141 122 111 89 87 122 130 140 148 150
349 348 349 347 346 347 349 351 350 347 345 342 343 342 341 341 339 339 338 338 338 336 335 331 329 327 325 327 322 321 322 314 305 278 262 273 277 266 258 243 229 206 180 166 161 160 158 172 173 168 171 187 200 184 183 189 188 203 201 208 235 227 225 211 212 214 136 136 160 162 152 150 149 147 143 137 144 139 127 114 109 104 107 120 134 144 151 154
347 346 346 345 346 350 351 350 349 347 344 342 341 340 340 339 337 337 336 336 336 336 335 330 327 326 326 326 322 325 324 316 306 270 274 291 288 264 244 228 221 211 200 186 177 175 171 168 168 166 175 202 206 197 197 181 178 206 215 237 248 238 254 263 249 272 94 141 153 162 155 148 146 146 154 147 148 155 146 142 140 139 138 138 145 151 155 159
345 343 342 343 346 350 349 346 346 344 341 340 340 339 338 337 336 335 335 334 334 335 333 330 327 324 326 325 323 326 322 321 282 256 293 320 302 271 219 209 209 207 207 200 190 181 171 161 166 173 181 212 225 218 221 203 173 195 206 226 245 237 261 269 261 297 17 153 153 156 150 142 150 151 155 145 142 173 181 171 163 157 153 149 153 158 160 163
344 343 343 343 344 344 341 339 339 338 338 339 338 337 336 334 334 333 333 332 332 333 331 329 326 324 326 323 323 325 331 344 285 271 346 339 312 262 202 193 194 200 195 188 185 173 165 159 166 182 196 218 216 225 232 215 204 225 223 230 246 260 270 277 284 116 103 144 154 154 155 152 155 161 160 153 155 190 192 185 167 157 157 155 158 161 163 166
343 343 343 341 339 338 335 335 335 336 337 337 337 336 334 332 331 330 330 330 330 330 329 327 324 325 322 321 338 333 286 266 291 293 347 351 334 219 180 176 178 187 182 175 171 166 168 163 169 186 201 217 210 219 228 207 205 242 251 242 248 257 262 278 292 291 109 144 185 172 163 155 157 172 173 168 176 191 180 171 163 159 159 155 156 160 165 168
343 341 341 339 338 337 337 338 338 338 337 335 336 334 333 330 329 328 327 327 327 327 327 324 322 324 320 328 33 16 103 250 277 283 282 305 310 183 159 165 170 174 175 169 162 168 178 177 186 188 195 214 217 224 229 213 205 231 259 265 265 260 254 263 274 278 247 180 199 179 160 161 168 173 179 189 183 164 159 154 156 155 154 153 156 164 168 169
343 341 341 339 339 339 341 342 340 338 337 336 335 333 332 329 327 325 324 324 323 324 323 320 319 320 319 332 81 342 262 251 271 294 291 282 279 189 157 163 169 171 173 175 177 174 175 190 199 184 198 216 215 223 215 213 224 231 251 270 277 267 260 264 264 266 253 202 195 172 169 178 179 165 175 198 147 138 146 144 149 149 154 158 162 166 168 170
343 341 340 340 341 342 344 342 339 338 337 337 334 332 330 326 325 323 322 320 319 321 318 315 312 310 298 278 90 309 261 251 278 317 300 256 241 206 174 169 174 176 177 186 188 177 171 194 207 194 208 227 239 254 196 186 229 226 240 261 269 270 271 272 272 264 240 203 185 172 181 189 179 149 170 191 137 140 142 142 150 152 160 165 167 168 167 171
342 341 340 341 344 345 344 341 339 338 337 336 333 331 327 324 324 321 319 316 314 315 310 306 298 258 187 204 123 247 256 244 314 342 304 219 206 196 184 183 182 180 181 188 189 182 184 198 203 209 273 282 252 256 219 209 240 232 242 256 257 262 268 267 270 266 240 189 185 180 184 189 174 154 176 177 141 143 142 148 155 156 165 169 170 171 169 174
341 341 340 343 346 346 344 341 339 338 337 336 333 330 326 323 321 319 317 312 309 306 299 290 259 190 182 191 144 225 249 215 253 24 46 159 204 198 195 196 189 185 182 180 193 195 200 207 185 181 255 264 261 272 249 232 255 264 257 264 260 257 261 256 256 259 241 185 190 181 164 160 183 188 180 161 149 149 149 155 160 161 168 171 172 172 172 177
341 340 341 344 346 345 344 342 340 339 337 335 332 329 326 323 321 318 313 306 302 298 282 257 212 178 166 168 215 233 236 204 229 325 3 331 231 216 210 204 199 197 188 172 200 205 206 209 183 184 218 212 262 282 267 255 260 265 258 263 271 272 265 252 242 243 229 199 180 157 112 151 197 207 171 157 154 154 154 158 165 167 168 171 173 172 175 179
341 340 342 344 345 345 344 342 341 340 338 335 332 329 326 325 322 314 306 299 294 283 246 209 184 167 157 225 235 241 246 249 262 276 279 279 268 241 226 215 211 208 200 191 206 210 209 207 192 206 228 221 230 268 302 313 313 283 266 238 274 312 286 254 222 231 226 194 161 155 164 200 209 202 163 159 157 154 157 162 168 169 169 172 175 174 178 179
341 340 341 343 346 345 343 343 342 340 338 335 331 329 329 327 320 310 302 295 284 248 206 181 166 154 161 252 260 261 259 266 273 268 261 258 246 237 231 222 219 214 209 210 217 218 211 205 199 215 239 239 254 316 314 313 308 290 285 246 259 276 275 268 232 222 232 187 162 173 210 213 217 190 165 163 161 158 162 168 170 173 172 174 175 177 182 182
341 341 342 344 346 345 343 343 341 341 339 336 331 331 332 327 320 319 312 289 253 181 164 152 156 151 225 272 277 277 255 258 259 251 246 240 224 223 224 217 220 218 215 219 224 229 208 195 195 221 236 230 243 294 300 302 298 278 264 274 270 218 266 287 267 199 217 204 167 180 209 221 213 180 170 167 165 163 165 170 172 175 177 176 176 178 183 186
342 343 344 345 346 344 343 342 342 341 339 336 333 334 335 331 340 5 23 103 125 137 136 140 165 166 285 278 289 278 235 235 245 247 242 230 216 215 217 210 217 217 216 225 230 238 200 175 177 212 206 210 206 238 281 296 295 295 215 245 251 220 265 297 295 221 208 191 176 188 185 200 195 176 176 171 169 169 167 172 175 177 180 179 178 177 182 184
344 345 345 346 346 344 344 342 342 342 339 338 337 339 346 1 37 72 86 94 106 121 117 123 162 167 266 269 289 275 244 235 240 253 246 228 216 212 206 193 210 204 207 227 234 239 197 170 185 199 194 209 178 169 240 257 256 287 261 244 246 222 242 277 300 298 212 170 186 198 184 189 176 169 177 176 173 172 171 175 177 178 182 182 179 179 182 184
344 344 346 346 345 344 343 341 342 343 340 340 342 347 24 55 80 97 95 95 98 113 94 50 148 167 266 254 275 284 285 269 266 273 250 227 213 206 194 182 197 170 169 233 229 211 200 192 196 193 199 200 181 177 213 233 216 212 227 244 272 247 245 248 265 309 220 177 190 192 194 209 174 167 178 181 177 177 179 178 178 179 181 183 182 182 185 188
343 344 346 345 344 344 342 340 343 343 339 344 350 2 61 49 94 106 91 93 87 136 236 201 170 197 276 249 248 281 303 307 299 282 232 206 201 200 195 194 181 138 139 186 223 201 185 185 197 205 214 202 202 206 213 235 232 217 212 224 259 259 256 247 248 280 236 204 199 192 197 191 173 177 181 182 181 183 183 178 178 181 182 183 184 187 188 192
342 343 344 344 344 343 341 340 342 342 342 349 353 7 47 16 26 344 346 307 258 240 249 236 209 238 278 280 283 320 313 301 285 266 197 185 175 174 192 189 152 154 169 175 210 205 162 197 221 211 214 205 209 215 212 229 244 248 247 250 258 255 261 256 246 256 220 206 220 208 204 190 179 184 183 180 180 185 185 181 183 184 185 186 187 190 192 196
340 341 343 343 343 341 339 339 341 342 347 353 355 12 47 23 8 322 320 295 258 235 247 245 228 236 251 261 270 3 351 315 279 278 227 190 157 149 185 177 166 194 194 182 196 182 163 213 229 208 199 195 202 209 202 218 237 249 249 260 271 253 258 264 244 236 211 189 250 228 215 213 193 185 181 176 180 189 187 184 187 187 187 190 190 192 195 198
339 340 341 342 343 341 338 339 341 341 349 356 2 39 42 13 341 317 309 290 266 233 237 243 239 241 242 248 253 263 342 285 282 285 239 183 161 164 178 175 185 194 183 183 186 181 206 227 224 194 179 182 209 211 195 220 235 244 243 248 269 256 267 282 258 236 202 183 248 217 200 228 210 189 181 179 187 192 190 188 187 186 186 190 194 195 196 195
340 341 341 342 342 340 337 339 339 339 348 349 342 319 349 343 339 335 315 273 279 237 221 234 233 237 238 243 239 212 217 230 248 273 211 164 173 178 169 178 189 180 173 188 193 195 214 231 206 178 171 185 222 228 200 231 240 238 242 233 256 256 256 277 279 308 284 237 251 201 185 206 193 195 195 192 196 195 192 194 190 188 188 191 194 194 193 191
342 343 343 342 342 340 338 338 340 345 343 340 312 314 343 338 344 350 337 253 286 247 219 230 222 229 234 225 190 180 207 205 195 249 211 165 166 157 171 183 175 180 194 195 200 209 221 222 178 171 180 188 215 233 209 227 249 245 240 228 250 256 237 232 290 355 335 302 278 165 137 209 160 180 209 206 207 204 195 193 197 203 200 198 198 196 194 191
341 343 343 343 343 341 338 338 352 345 338 339 340 336 339 339 345 348 341 253 288 269 233 231 217 231 219 182 168 174 199 212 200 223 193 169 174 154 175 181 167 195 200 189 199 219 230 215 161 175 195 194 209 230 214 205 238 258 246 229 243 260 259 253 320 9 337 306 285 147 119 287 191 184 201 202 203 209 199 194 202 206 204 206 205 200 199 196
340 341 342 343 342 342 343 345 339 337 333 333 339 334 336 338 340 339 335 352 294 260 197 190 179 200 182 159 163 146 118 236 213 207 190 184 187 166 171 174 173 201 188 178 203 225 216 187 165 182 196 198 208 227 216 194 217 253 239 215 239 260 268 268 283 0 277 263 274 155 147 269 240 195 202 194 198 205 199 200 207 204 202 206 207 203 201 198
338 339 340 341 342 344 348 321 322 332 329 311 326 330 332 333 335 335 343 351 299 216 164 167 175 180 170 161 160 141 152 223 184 199 200 193 185 160 177 180 167 192 166 151 220 215 174 176 184 189 190 201 211 222 209 182 209 244 205 168 238 252 258 266 259 210 239 261 281 256 157 226 258 214 205 192 199 207 202 206 209 206 207 207 207 206 202 199
335 336 338 338 339 342 340 311 318 321 305 314 323 326 327 329 333 337 133 322 284 180 152 188 166 165 155 160 167 171 222 159 120 210 191 182 184 156 190 199 177 179 165 170 212 199 162 180 192 191 197 210 209 212 195 181 216 241 187 185 237 241 247 261 249 225 241 260 273 254 170 204 264 245 208 193 197 206 207 211 210 207 209 209 208 208 205 203
334 334 338 336 336 341 340 315 302 301 313 323 323 321 322 323 327 86 122 270 261 331 153 145 122 140 112 155 189 224 284 105 46 206 156 175 200 172 198 201 173 177 181 191 211 196 168 188 190 189 204 214 204 203 191 193 220 229 196 223 251 248 246 245 220 223 221 214 250 249 185 193 264 259 187 189 200 207 208 211 212 209 209 208 208 209 206 204
333 332 336 336 335 338 335 315 303 317 328 323 317 317 318 318 353 117 216 237 273 296 196 92 40 69 113 145 207 250 264 305 334 113 130 168 193 186 225 149 138 168 193 209 218 214 216 197 185 190 207 205 193 199 201 206 216 202 181 230 261 266 274 275 205 162 216 238 239 241 208 178 248 256 186 184 199 204 207 210 213 214 212 210 210 209 207 204
333 331 333 334 334 333 325 314 322 329 321 317 318 318 318 332 95 160 221 239 299 277 65 46 28 22 63 169 236 250 246 293 334 138 144 155 167 183 208 119 129 156 199 228 228 219 237 233 194 199 201 194 189 202 212 210 211 204 172 186 236 278 300 295 286 127 226 246 229 232 219 183 225 253 216 202 197 197 204 207 208 211 212 211 211 210 207 204
333 331 330 332 333 327 310 313 332 329 320 324 326 324 4 98 232 216 237 328 334 308 20 19 4 353 311 274 266 219 222 269 241 168 169 171 177 190 195 183 167 170 203 221 213 201 225 227 226 239 202 187 185 200 217 211 206 206 186 162 181 244 258 238 241 210 234 250 226 210 207 202 232 238 216 210 199 197 202 205 207 209 209 209 210 210 207 203
333 332 329 332 333 325 320 335 338 329 322 326 322 350 87 175 237 211 230 286 338 49 24 351 328 313 274 297 278 206 194 225 228 203 187 181 183 196 203 200 182 180 192 199 182 171 230 238 225 232 228 189 183 187 205 210 201 200 192 173 181 203 219 221 235 253 248 259 246 195 187 222 260 240 213 206 204 201 200 206 211 209 208 208 208 207 204 199
334 332 328 331 334 335 348 350 341 327 315 317 326 95 132 212 242 208 222 260 310 29 23 345 321 300 245 251 245 188 181 230 208 180 190 184 187 201 205 204 197 186 126 143 180 183 212 245 216 209 202 175 193 201 191 175 182 206 189 164 194 201 193 206 212 226 248 264 265 199 178 201 218 228 209 198 205 205 202 208 211 211 212 210 207 204 199 199
333 331 330 331 335 349 358 350 342 329 299 317 102 172 200 210 243 257 230 293 327 358 351 327 311 310 315 276 268 23 21 264 207 186 190 185 195 202 199 201 197 185 143 168 209 185 208 240 233 212 192 172 198 210 176 149 184 211 163 162 208 194 174 216 214 194 215 267 258 213 206 216 217 247 221 196 203 205 207 211 209 214 218 211 208 203 198 202
334 333 332 329 332 348 349 346 344 324 202 80 158 207 226 224 209 225 354 359 336 331 332 327 339 18 343 304 325 12 10 347 327 221 205 189 205 203 199 204 193 192 187 187 207 155 196 239 224 177 206 200 199 196 175 172 186 181 161 192 205 171 177 224 241 221 217 262 256 208 235 271 277 275 251 201 202 205 209 212 210 215 215 203 202 202 200 203
335 332 327 323 340 353 344 343 342 272 174 75 205 219 262 260 222 126 23 19 335 323 340 351 356 349 345 327 335 8 360 347 10 1 273 204 222 207 206 214 196 199 198 192 226 188 175 258 234 173 215 228 201 189 198 190 171 155 192 197 156 145 205 205 220 239 236 249 267 221 230 251 227 255 262 204 206 213 212 212 213 216 208 198 204 202 201 203
332 323 314 321 348 348 340 341 338 206 167 317 238 249 277 247 311 321 345 20 337 320 350 337 272 296 29 354 316 356 357 344 14 6 325 243 302 318 239 234 206 207 201 194 223 219 180 253 261 192 206 221 186 188 231 226 204 205 199 173 144 181 214 185 185 223 218 237 273 275 247 235 204 222 229 203 209 215 214 215 218 218 204 198 207 204 203 205
334 322 305 338 346 343 341 341 332 181 157 225 229 253 265 252 296 294 303 338 307 266 298 238 235 320 359 338 311 336 350 324 337 354 330 290 311 37 20 349 286 283 235 205 204 204 178 219 252 211 195 198 177 180 211 231 230 229 169 169 179 178 193 191 185 193 196 226 258 269 257 236 219 205 188 197 210 210 211 213 217 219 208 201 206 203 203 205
341 318 243 335 343 343 343 343 332 161 197 224 211 253 292 295 286 284 298 310 267 188 291 279 309 328 320 317 311 313 314 293 303 300 286 323 348 62 27 6 329 325 309 250 216 204 184 202 238 253 202 192 189 189 201 209 215 215 198 198 204 187 183 205 201 166 170 194 207 229 253 251 241 203 183 192 206 208 209 210 216 219 210 204 205 203 202 205
332 287 273 337 344 344 345 352 144 168 244 228 259 266 285 295 280 285 293 294 293 225 222 259 276 271 279 305 304 301 314 304 303 259 224 306 3 49 14 1 335 321 329 329 258 226 218 198 215 239 225 205 211 203 202 206 204 203 205 204 201 186 137 180 224 213 165 190 187 200 249 259 248 202 191 193 202 209 207 204 214 220 213 209 207 205 204 205
309 269 299 330 340 341 346 17 133 338 262 290 320 299 305 309 293 297 303 314 322 272 233 241 254 259 272 305 328 348 352 317 287 290 221 347 55 64 4 355 345 329 342 359 308 312 325 226 212 231 229 214 219 212 204 209 207 201 207 203 194 181 148 183 220 216 196 226 174 162 252 262 241 196 194 197 199 209 211 200 206 220 218 214 211 209 208 207
276 290 299 324 337 335 343 39 1 8 6 335 339 332 325 326 325 335 354 3 352 329 328 312 289 349 19 17 7 353 345 323 250 16 16 12 56 67 16 358 353 352 3 359 330 347 348 292 222 248 259 253 253 251 239 215 201 203 213 200 191 197 193 200 205 179 200 219 151 182 256 264 255 202 198 216 211 205 211 202 204 219 225 222 220 216 211 210
288 287 291 331 340 336 347 33 7 5 344 340 344 334 331 343 345 349 351 340 332 320 325 321 341 1 3 357 7 359 344 339 59 40 26 346 9 46 22 2 354 1 11 356 343 349 339 309 311 260 248 250 262 267 264 228 201 211 217 205 206 206 200 200 163 151 221 207 164 190 241 250 277 251 203 219 223 204 212 207 204 213 220 223 225 221 216 216
306 281 241 325 338 343 33 27 7 359 341 344 340 333 344 350 340 344 334 317 323 346 327 312 324 321 310 359 20 5 355 5 30 11 2 337 334 22 18 356 341 348 348 346 348 331 243 257 257 195 218 229 229 232 225 200 200 237 219 211 214 207 201 200 177 187 230 218 173 189 223 249 289 297 236 224 223 217 227 230 222 223 223 221 220 217 214 217
319 311 279 323 336 353 23 9 12 3 345 347 338 328 341 334 323 340 337 325 3 8 336 291 314 319 336 30 13 324 357 40 7 333 324 335 337 3 3 340 318 341 348 351 354 337 241 245 255 227 228 239 260 277 251 183 187 216 219 218 220 215 207 200 198 204 198 197 212 201 183 218 270 282 276 268 251 236 237 234 228 229 225 218 216 215 211 208
290 292 309 343 335 340 352 8 17 0 340 343 330 306 324 320 315 337 4 8 3 359 327 303 8 15 4 11 3 311 339 351 311 294 304 338 322 315 339 320 305 356 357 353 354 349 344 319 288 265 267 268 282 291 280 236 209 210 210 218 223 219 210 207 216 207 156 174 231 212 172 203 243 251 257 262 255 251 251 239 227 228 223 217 217 216 212 208
266 278 319 343 317 328 339 333 342 339 330 332 313 290 313 317 323 342 1 356 349 357 2 342 14 15 353 353 16 321 336 338 301 293 347 339 320 325 339 318 329 7 4 351 353 5 319 265 286 309 308 305 299 291 283 263 239 219 205 211 217 215 212 216 219 198 166 197 230 209 185 202 223 229 234 243 243 242 243 233 221 228 234 230 225 219 215 213
270 275 302 339 316 302 302 301 315 322 322 324 309 299 319 325 337 346 346 347 339 343 6 332 336 352 342 339 6 342 337 335 303 322 344 326 326 337 335 314 355 14 4 345 340 357 310 269 310 322 313 309 305 295 284 264 250 239 219 209 209 212 215 219 218 201 196 216 225 203 196 207 215 214 216 229 237 237 243 241 223 222 226 225 220 220 224 223
270 294 305 329 293 277 279 284 304 316 314 312 300 305 323 323 337 344 337 327 311 311 347 342 321 326 320 317 329 294 272 279 277 294 317 314 324 338 312 308 358 0 354 338 325 351 5 302 313 322 315 304 304 309 312 291 255 244 241 223 210 211 215 219 217 202 202 223 230 216 207 222 240 228 218 230 241 249 274 257 242 229 209 202 208 217 223 225
249 273 284 298 291 280 278 275 292 303 301 300 306 323 329 319 327 333 313 282 267 283 327 330 313 311 307 310 308 285 284 290 278 284 294 285 287 291 274 295 332 333 337 321 300 325 351 299 308 325 321 296 302 331 332 321 296 251 241 233 219 210 212 219 214 196 192 205 220 227 220 234 248 233 232 257 263 257 246 237 247 252 219 193 203 216 217 215
249 272 256 253 288 287 281 276 269 274 284 302 319 321 318 309 314 324 310 290 286 303 318 316 308 311 312 304 291 279 295 306 292 286 285 269 260 255 256 265 273 274 271 278 284 273 246 278 305 321 313 287 298 318 320 319 309 254 232 225 221 215 211 215 216 212 200 189 203 222 219 224 231 204 199 246 251 245 242 232 230 244 237 212 208 216 215 208
Height
809 807 805 803 801 798 796 794 793 791 789 788 786 785 783 782 780 779 778 776 775 772 770 768 766 765 763 761 759 758 755 754 751 752 749 736 731 735 737 739 741 742 745 747 749 753 756 759 760 761 765 767 769 769 769 769 768 777 789 798 799 791 782 769 763 757 754 757 758 754 752 760 768 766 761 763 769 769 772 773 771 770 769 772 775 777 781 785
809 807 805 803 801 798 796 794 792 790 789 786 785 783 781 780 778 777 776 774 773 771 769 767 765 764 761 760 758 756 754 751 749 748 739 728 729 732 732 735 739 741 742 745 747 750 754 757 758 760 765 769 769 767 770 767 768 779 786 793 790 777 766 754 751 748 745 752 755 753 751 753 760 762 759 769 778 773 777 779 776 777 775 775 776 779 783 784
809 807 805 803 800 798 796 794 792 790 787 785 783 782 780 778 777 775 774 772 771 769 768 765 764 762 760 759 756 756 753 750 748 739 728 725 727 726 727 732 735 738 740 743 745 748 751 754 757 761 767 771 769 768 771 767 768 774 779 789 778 760 756 747 744 745 742 745 751 755 751 752 756 755 758 769 777 776 778 778 778 782 779 778 778 779 782 784
808 806 804 803 800 798 796 793 791 789 786 784 782 780 779 777 775 774 772 770 769 768 766 764 763 761 759 757 756 755 753 753 745 729 724 724 723 722 724 727 731 736 739 742 745 748 750 753 757 760 768 774 769 768 771 766 766 769 772 779 764 752 756 746 741 744 742 742 748 752 753 758 755 752 758 765 778 782 776 768 767 772 773 774 776 778 781 783
808 806 804 802 799 797 795 792 790 787 785 782 780 778 776 775 773 771 770 769 767 766 764 762 761 759 758 756 756 754 755 759 740 722 725 723 720 720 721 724 729 734 738 742 745 748 751 753 757 762 768 773 772 771 769 759 759 766 763 760 753 752 757 744 737 743 742 744 748 752 755 756 752 753 757 760 772 773 763 758 758 760 763 766 769 774 778 781
808 805 803 801 798 796 793 791 789 786 784 781 779 777 774 773 770 769 768 766 765 764 762 760 759 759 757 755 756 753 757 758 733 722 726 722 721 719 720 724 728 734 737 741 744 747 751 753 759 766 768 770 772 770 764 755 756 766 759 750 749 751 753 743 737 740 741 747 752 751 748 747 753 757 754 753 756 751 746 750 754 756 757 761 765 770 774 778
806 804 802 799 797 794 791 789 787 784 782 780 778 775 773 770 768 767 765 764 763 761 760 758 758 757 756 755 755 754 757 748 725 723 725 723 725 721 723 726 728 734 737 740 743 747 750 754 759 762 766 770 769 764 760 755 755 765 761 750 748 747 747 741 737 737 739 746 746 744 745 748 755 756 753 752 747 741 743 747 752 756 758 762 766 769 773 775
805 803 800 798 795 792 790 787 785 782 780 778 776 773 771 768 766 764 762 762 760 759 758 756 757 756 755 755 754 755 755 738 721 723 724 724 726 724 726 727 730 733 734 739 740 744 749 755 757 757 766 767 761 759 756 758 760 762 759 750 746 744 741 736 735 736 737 740 738 742 748 748 746 746 751 752 746 743 745 748 753 758 761 764 766 769 772 775
804 802 799 796 793 791 788 785 783 780 778 775 773 770 768 766 764 762 760 759 757 758 756 754 755 754 755 754 754 757 744 725 721 723 721 723 724 725 727 726 730 731 733 737 737 742 747 752 753 752 761 760 756 757 755 763 766 757 753 750 747 745 738 734 735 734 736 736 736 745 751 746 740 743 753 750 745 745 746 751 754 758 763 765 767 768 770 774
804 801 798 795 792 790 787 784 781 778 775 773 770 767 765 763 761 759 757 755 754 754 753 753 753 753 755 752 756 755 732 719 723 721 719 722 723 725 726 726 729 729 732 735 736 741 743 746 747 746 754 756 754 755 754 760 758 748 749 749 746 745 738 734 735 731 732 734 734 744 751 747 741 747 759 751 744 746 749 755 756 759 764 765 767 768 769 772
803 800 797 794 791 788 785 782 778 775 773 770 767 764 761 759 757 755 753 752 751 751 751 750 751 752 753 752 756 747 724 719 722 719 720 722 723 724 724 726 727 728 731 734 736 737 738 740 740 746 755 754 753 754 751 749 748 745 747 749 745 743 739 734 735 730 731 734 731 737 747 749 746 749 754 748 743 746 751 758 757 759 763 765 767 768 769 771
802 799 796 793 790 787 783 780 776 773 769 766 763 760 758 755 753 751 748 747 747 747 747 748 750 750 751 753 747 731 718 720 720 719 722 722 724 724 724 725 725 726 728 732 735 733 736 737 739 750 752 749 755 758 750 741 744 745 745 754 749 743 742 735 733 730 731 735 727 734 755 759 753 750 746 742 743 745 751 757 759 760 762 764 766 767 769 770
802 798 795 792 789 785 782 778 774 771 767 763 759 756 754 751 748 746 743 743 743 744 744 746 748 748 752 748 729 717 718 720 719 719 720 721 724 724 725 726 725 726 727 729 731 731 734 736 739 746 743 748 757 752 743 738 744 748 746 753 754 754 749 733 729 729 730 731 721 735 767 769 754 747 743 741 742 748 754 757 758 760 761 764 766 767 769 769
801 798 794 791 787 784 780 777 773 769 764 760 755 753 750 747 744 741 739 738 738 740 742 744 746 749 751 736 717 716 718 717 718 716 717 720 721 723 724 725 726 727 728 728 729 730 733 735 739 743 741 746 749 745 746 748 748 751 753 753 756 765 756 732 728 731 733 730 718 735 766 765 752 747 743 740 741 747 754 757 758 759 760 762 764 766 768 766
799 796 793 790 787 783 779 775 771 767 763 758 752 750 746 743 740 737 736 736 736 738 740 744 746 748 749 732 715 714 715 714 714 710 713 717 718 721 721 723 725 725 728 729 729 731 732 735 741 747 746 742 745 754 761 760 753 753 762 765 761 765 757 736 727 730 735 730 720 737 761 759 751 748 741 739 741 745 752 755 756 758 759 760 762 764 767 766
797 794 791 789 785 782 778 774 770 765 761 756 751 748 744 741 738 737 736 735 737 739 740 745 745 747 747 730 714 712 712 711 709 707 710 713 715 716 718 721 723 725 728 727 729 732 732 737 742 745 746 745 752 762 768 770 765 758 764 771 765 762 760 746 731 723 726 731 729 736 752 756 749 746 742 739 742 746 751 754 754 757 758 759 760 762 765 766
796 793 789 787 784 780 777 773 769 764 759 755 750 745 743 741 739 738 737 737 740 740 743 744 744 747 738 717 712 713 709 707 707 707 708 709 711 712 716 721 722 724 726 727 730 733 735 738 742 743 745 749 754 762 775 783 777 768 765 766 763 760 760 754 740 724 721 731 736 736 743 748 744 742 743 741 742 747 751 752 753 754 757 757 758 760 762 764
795 792 788 785 782 779 775 771 768 763 757 754 749 746 743 742 741 740 739 740 741 742 745 744 746 749 732 713 714 712 706 706 706 707 707 706 708 711 715 718 719 723 729 733 733 735 739 739 743 748 750 751 753 761 776 778 770 770 767 765 764 759 757 756 747 731 726 732 737 740 745 745 743 742 742 740 740 745 748 748 750 751 755 756 757 759 760 761
795 791 788 784 781 777 774 770 766 762 757 752 749 746 744 743 742 741 740 741 744 744 742 741 741 738 723 711 711 708 705 706 705 704 704 705 708 711 713 715 718 725 735 742 740 736 739 743 747 753 753 753 753 755 762 762 757 760 761 762 764 761 757 751 744 732 728 737 740 742 745 744 746 745 742 740 739 744 747 746 749 751 753 755 756 757 757 758
795 791 788 784 780 777 773 769 766 762 758 753 748 745 747 749 747 745 742 740 741 738 733 732 731 725 715 708 707 707 705 704 705 703 701 702 705 711 715 717 722 729 736 744 743 734 736 749 753 750 750 749 748 749 750 752 751 753 757 759 758 761 757 744 741 732 725 739 744 738 740 742 743 742 738 739 741 745 749 749 750 751 752 753 753 754 754 754
794 791 787 784 780 776 772 769 765 762 760 757 751 750 754 759 759 757 750 739 731 730 728 723 722 719 711 705 704 708 710 708 704 700 701 702 703 714 720 720 729 737 736 737 739 733 736 749 748 743 744 743 743 745 746 749 750 752 756 759 758 758 752 739 738 733 725 738 743 735 742 744 739 738 736 738 742 744 744 746 748 748 749 749 749 751 750 749
794 791 787 784 779 775 771 767 764 762 760 758 756 756 759 762 764 762 758 745 727 722 723 716 715 713 705 702 703 709 717 717 709 699 697 701 705 715 720 722 732 737 734 735 740 742 745 745 740 737 738 739 741 742 745 748 749 752 754 759 760 752 746 739 732 729 726 736 740 734 741 745 739 737 736 735 736 736 735 736 738 741 745 746 747 747 747 748
794 790 787 783 778 775 769 766 763 761 760 759 759 760 760 760 760 757 758 750 726 713 712 709 708 705 700 700 701 708 717 716 714 702 692 699 706 710 716 723 730 733 734 737 740 748 750 741 732 733 734 738 743 742 745 749 750 752 753 759 758 746 749 749 736 729 726 729 733 733 738 742 741 743 741 735 731 731 731 732 734 735 738 738 737 739 741 745
792 789 787 782 778 773 768 765 762 761 760 758 759 759 759 758 757 755 754 747 728 709 701 697 697 696 692 693 695 703 709 706 708 699 687 696 704 706 712 718 726 733 733 732 735 741 741 731 724 730 734 738 744 744 747 752 754 752 749 753 751 742 746 749 740 734 729 727 726 732 748 749 744 750 748 738 734 735 734 736 738 736 734 733 733 734 736 737
790 789 786 781 778 773 767 764 761 762 760 757 758 757 757 756 754 756 754 748 733 711 697 691 691 688 682 687 692 695 701 700 695 689 683 688 697 703 708 709 719 732 730 729 735 736 733 725 722 730 735 737 743 745 745 750 756 754 745 742 742 740 742 743 742 742 746 747 731 732 762 763 745 746 747 740 740 740 737 737 738 736 735 736 737 736 734 734
789 788 784 781 778 772 768 764 762 764 761 758 758 755 755 754 752 755 754 755 738 708 695 692 689 683 677 686 689 690 705 699 680 679 681 683 686 693 706 708 711 721 724 726 732 730 725 722 721 729 735 737 742 744 740 743 757 757 739 732 736 739 741 742 745 750 759 757 735 730 758 766 752 746 741 738 742 740 736 736 734 733 734 734 734 734 732 732
788 786 784 781 778 774 772 769 767 766 763 760 756 754 754 750 752 751 751 761 738 698 691 693 687 680 676 682 683 690 705 691 675 678 677 681 683 685 704 712 710 714 714 723 735 724 716 722 725 726 732 738 741 741 734 737 752 750 730 728 735 737 741 741 745 753 753 748 739 732 744 760 759 747 734 733 740 741 738 736 733 731 731 730 729 729 728 727
787 785 783 780 778 778 777 773 770 766 764 761 755 755 752 749 752 748 756 765 725 681 682 687 680 674 674 680 679 683 686 677 681 682 669 676 683 685 704 708 708 712 706 719 736 719 709 721 725 724 732 735 734 731 728 732 742 736 724 728 730 732 738 737 743 751 746 750 755 741 739 758 759 739 729 733 740 743 740 734 731 728 726 725 725 725 723 722
786 784 783 779 776 776 775 773 771 765 761 758 756 754 749 750 750 746 763 760 709 674 677 678 677 677 680 686 684 681 677 674 682 677 669 678 680 684 700 700 701 710 705 710 723 715 707 710 711 717 727 728 725 722 721 728 731 725 723 728 727 730 734 736 744 748 748 760 763 744 738 758 757 734 730 740 741 740 734 727 724 720 718 719 719 719 718 718
786 782 782 779 774 772 771 769 767 762 759 758 757 752 749 750 749 757 774 750 702 682 677 677 685 686 688 695 693 688 684 680 677 674 677 682 680 684 690 691 697 708 709 709 712 710 703 699 702 709 714 714 716 717 717 720 721 721 727 732 735 735 734 738 741 743 757 766 755 738 733 748 756 735 725 733 729 725 724 722 720 716 715 715 714 713 714 714
785 781 780 779 776 773 771 767 763 762 760 758 756 751 750 750 752 767 763 724 697 690 682 687 695 692 694 699 698 693 689 686 679 680 686 685 690 695 694 697 703 712 719 717 714 711 706 706 706 702 700 703 711 716 715 714 716 723 731 737 746 748 743 747 746 749 767 765 743 731 728 741 753 734 716 715 709 707 713 714 714 713 711 709 707 707 707 708
785 781 778 778 776 773 772 767 761 761 760 758 756 752 752 757 760 760 739 708 703 702 696 703 703 698 699 697 696 692 691 690 681 681 687 688 695 697 696 702 705 718 731 723 718 718 713 710 705 699 695 697 710 721 721 717 717 726 734 741 757 765 763 766 764 761 765 753 732 725 729 740 740 718 704 704 700 698 700 700 701 701 701 701 700 700 700 702
784 779 775 775 773 771 769 765 761 760 758 758 758 752 755 765 759 743 727 714 711 707 706 709 705 701 701 698 695 688 688 691 684 682 683 685 694 694 692 693 693 708 722 719 722 727 723 713 704 705 701 693 703 719 726 725 722 727 734 742 758 769 777 782 775 766 759 745 728 723 730 740 731 706 693 694 693 688 686 687 688 688 690 690 689 691 694 698
782 777 774 771 770 769 767 765 762 759 759 758 757 755 761 765 749 731 725 719 710 709 712 712 708 702 697 696 691 683 687 690 681 684 687 687 696 698 696 694 691 697 707 715 723 725 733 727 708 704 701 693 696 704 709 715 719 721 721 730 746 752 763 772 768 763 758 744 732 731 735 735 723 699 681 680 682 679 677 677 677 679 680 679 680 685 691 694
781 776 772 769 768 768 766 765 761 758 760 758 756 759 760 755 741 731 730 725 718 718 717 712 708 705 700 695 688 683 689 689 680 683 689 690 695 695 694 694 692 695 704 718 720 715 727 722 696 690 689 686 693 692 691 706 719 716 712 725 736 730 734 747 747 743 743 741 736 732 729 716 701 686 671 671 675 675 675 673 674 678 676 677 684 687 690 691
781 772 769 767 766 767 765 764 761 759 760 758 758 761 753 741 736 734 732 729 728 728 724 716 710 711 711 702 695 694 693 691 688 688 688 689 690 689 689 688 687 689 696 708 713 712 722 714 688 686 689 682 686 687 685 699 713 714 716 723 717 708 717 737 743 733 734 748 740 723 718 707 697 689 674 672 676 675 676 675 675 676 675 679 685 685 686 686
781 773 769 767 766 766 765 763 761 759 760 760 760 756 746 737 734 733 732 730 731 729 729 730 720 716 721 716 709 707 703 698 697 697 696 693 690 687 686 683 681 683 686 693 700 700 708 709 689 685 692 682 675 682 683 683 693 708 717 710 703 708 714 726 743 741 743 754 739 719 717 711 709 702 682 677 682 679 677 676 675 674 675 680 680 678 679 678
784 777 771 768 767 766 763 760 760 759 759 762 760 751 745 740 733 731 730 730 732 730 733 740 728 718 726 730 721 713 712 711 708 709 707 699 693 691 691 687 679 677 675 680 691 690 695 708 695 680 686 681 672 686 696 685 680 691 698 692 700 723 728 726 738 744 748 754 738 723 719 710 707 700 684 682 684 679 676 676 675 675 675 677 675 674 674 673
787 780 773 769 767 765 761 758 757 758 760 763 763 754 745 741 734 730 729 730 733 732 734 736 728 723 727 729 725 718 717 718 716 717 713 702 698 703 707 703 692 685 678 675 683 684 687 704 701 681 676 678 677 690 703 698 686 683 689 690 693 707 716 719 723 725 736 746 740 732 724 707 695 686 677 678 677 674 674 674 673 672 670 670 670 669 670 670
790 786 776 769 767 764 759 755 756 760 761 761 759 753 745 741 736 729 728 730 730 730 733 732 729 731 729 724 724 721 717 716 716 718 715 705 702 711 716 713 707 700 687 676 676 678 683 697 702 688 677 682 688 689 691 694 692 692 698 700 697 696 699 707 711 708 716 731 735 736 729 702 682 674 668 665 666 666 668 669 667 664 662 663 663 662 663 663
794 791 778 769 767 764 758 755 757 761 760 757 754 750 746 741 736 731 728 728 729 728 729 730 730 731 728 726 725 720 719 719 716 716 715 709 708 716 719 716 713 705 692 687 686 683 685 692 697 692 686 688 686 674 670 675 679 686 692 694 695 695 700 714 721 708 703 712 716 723 723 695 670 667 661 655 656 656 658 662 662 659 656 656 655 654 655 655
797 793 779 771 769 765 762 760 758 759 759 757 754 750 746 741 738 736 731 729 731 728 724 726 728 727 727 728 725 722 725 725 719 715 714 713 716 725 724 716 713 705 697 702 700 689 685 687 690 688 681 680 673 661 660 664 665 673 680 681 685 690 695 710 720 709 701 705 702 708 714 689 660 657 655 649 648 647 651 656 656 654 652 650 650 648 648 648
797 790 778 773 771 768 768 767 764 765 763 759 755 750 746 744 742 740 736 736 735 732 729 728 727 727 728 729 728 728 728 725 721 719 719 719 721 725 723 716 712 706 703 709 706 696 691 689 691 690 679 671 666 660 658 659 663 673 675 672 676 682 683 686 695 698 698 701 702 710 715 688 656 651 652 649 646 644 648 652 652 652 650 647 647 645 645 646
795 788 779 775 772 769 772 773 774 774 769 763 759 753 747 745 744 743 742 741 738 736 735 733 730 730 730 729 729 730 731 729 726 724 726 727 723 721 721 717 715 712 712 715 712 708 707 700 698 702 699 691 686 681 675 669 669 673 672 668 668 671 675 678 685 693 696 694 695 706 710 685 658 652 650 649 649 647 646 647 648 649 647 645 644 643 644 645
795 789 781 776 773 771 774 775 776 778 773 769 766 759 753 749 746 745 744 741 738 738 739 736 732 730 729 729 731 732 731 732 733 730 729 729 725 722 722 720 718 716 714 712 708 709 713 707 701 706 710 708 704 695 685 678 675 671 667 665 664 664 670 677 685 695 700 696 689 693 695 678 659 653 649 646 648 647 644 645 646 645 644 642 641 641 642 643
798 794 786 780 775 774 775 773 775 778 776 774 773 765 760 756 749 744 743 741 739 739 740 736 732 731 733 734 737 737 734 733 736 736 733 732 730 726 724 722 720 718 713 709 706 707 709 704 699 701 703 702 699 689 674 667 670 671 666 664 663 661 663 670 681 688 692 694 688 680 678 675 664 657 652 649 647 644 641 642 643 642 641 640 638 637 637 638
801 798 792 788 784 780 778 776 777 781 778 777 777 770 764 761 754 747 744 743 742 742 740 736 734 737 741 740 741 741 738 737 738 737 735 735 732 728 726 722 720 718 714 711 709 708 714 713 704 699 698 696 695 690 676 665 661 661 663 663 661 660 661 666 673 673 675 688 690 674 668 674 668 656 652 649 647 645 642 641 640 638 636 636 635 634 634 634
800 797 791 792 793 790 786 782 782 783 780 778 776 770 765 763 758 754 750 746 745 744 743 742 741 743 744 743 744 745 743 741 739 736 736 736 733 732 729 723 721 719 716 715 713 712 721 721 706 700 699 693 689 686 678 669 659 652 654 656 656 658 660 661 664 663 665 674 677 667 665 670 664 653 647 643 640 640 639 639 638 634 632 633 634 634 634 633
798 797 792 791 794 793 791 787 785 784 782 779 775 771 769 768 763 760 757 754 752 748 747 749 748 746 746 744 744 747 746 744 742 739 739 739 736 736 734 729 725 721 720 721 717 714 721 719 706 703 702 693 687 681 672 666 660 653 650 649 649 651 652 651 655 658 659 659 658 659 663 663 655 646 639 634 632 633 635 635 636 634 632 632 633 634 633 631
798 798 795 794 794 792 790 788 787 786 783 779 776 773 772 772 769 766 764 763 762 754 749 753 751 748 747 745 744 746 744 743 744 742 740 741 740 738 737 733 729 727 727 727 721 717 722 721 709 706 707 699 685 676 671 667 661 656 651 646 643 645 645 645 647 652 658 660 655 657 664 662 650 641 635 630 629 633 634 632 631 631 630 629 629 630 630 629
797 796 796 797 795 790 789 788 787 788 786 780 777 774 773 773 772 772 768 762 761 758 753 753 752 747 746 746 745 744 740 738 740 738 736 738 739 737 735 731 731 733 732 729 725 721 724 724 714 712 718 706 686 680 680 671 663 659 653 646 642 641 641 640 639 643 651 657 657 659 665 660 644 636 638 635 634 636 636 632 628 627 626 626 625 624 625 626
796 795 795 798 795 788 788 788 786 788 786 779 776 775 775 773 770 773 772 761 755 756 754 752 751 749 748 747 744 741 738 736 736 733 732 732 731 731 731 728 729 732 732 730 727 723 723 726 722 721 723 709 691 687 684 678 676 665 644 634 635 636 636 635 635 635 636 643 652 655 652 642 633 634 640 639 636 636 634 630 628 624 621 622 621 619 619 620